GW5116 Weather Reports


time (UTC)temp
F
wind
direction
speed
knots
gust
knots
rain 1hr
in
rain 24hr
in
rain mn
in
humidity
%
barometer
mb
20260510164359 69 279 0.9 0.9 0.00 0.00 0.00 78 1016.9
20260510163858 67 32 0.0 0.9 0.00 0.00 0.00 81 1017.3
20260510163355 67 46 0.0 0.0 0.00 0.00 0.00 82 1017.0
20260510162855 67 24 0.0 0.0 0.00 0.00 0.00 82 1017.2
20260510162353 67 293 0.0 0.0 0.00 0.00 0.00 79 1017.2
20260510161848 71 288 0.0 0.9 0.00 0.00 0.00 72 1017.2
20260510161344 72 73 0.0 0.9 0.00 0.00 0.00 62 1017.2
20260510160841 72 94 2.6 5.2 0.00 0.00 0.00 57 1017.2
20260510160339 73 135 1.7 3.5 0.00 0.00 0.00 56 1017.1
20260510155832 73 64 2.6 3.5 0.00 0.00 0.00 54 1016.8
20260510155330 73 179 3.5 5.2 0.00 0.00 0.00 56 1016.7
20260510154826 75 94 4.3 7.0 0.00 0.00 0.00 52 1016.5
20260510154321 74 203 1.7 2.6 0.00 0.00 0.00 52 1016.5
20260510153816 73 160 1.7 5.2 0.00 0.00 0.00 54 1016.7
20260510153312 75 82 5.2 7.8 0.00 0.00 0.00 53 1016.8
20260510152809 74 7 0.9 2.6 0.00 0.00 0.00 53 1016.9
20260510152307 74 133 2.6 5.2 0.00 0.00 0.00 55 1017.0
20260510151803 73 193 0.9 5.2 0.00 0.00 0.00 55 1017.1
20260510151301 73 172 2.6 3.5 0.00 0.00 0.00 56 1017.2
20260510150756 72 83 1.7 3.5 0.00 0.00 0.00 60 1017.1
20260510150252 72 180 0.9 2.6 0.00 0.00 0.00 57 1017.1
20260510145748 73 20 2.6 5.2 0.00 0.00 0.00 57 1017.2
20260510145245 71 165 0.9 3.5 0.00 0.00 0.00 59 1017.1
20260510144740 70 18 1.7 3.5 0.00 0.00 0.00 62 1017.3
20260510144238 69 74 0.9 2.6 0.00 0.00 0.00 62 1017.4
20260510143732 70 95 3.5 6.1 0.00 0.00 0.00 59 1017.3
20260510143229 69 75 1.7 1.7 0.00 0.00 0.00 61 1017.0
20260510142725 70 88 4.3 7.0 0.00 0.00 0.00 60 1017.2
20260510142222 71 94 2.6 2.6 0.00 0.00 0.00 59 1017.0
20260510141719 71 91 1.7 2.6 0.00 0.00 0.00 62 1016.9
20260510141218 69 75 0.9 1.7 0.00 0.00 0.00 63 1017.0
20260510140713 70 140 0.0 3.5 0.00 0.00 0.00 62 1017.2
20260510140208 69 340 0.9 3.5 0.00 0.00 0.00 64 1017.0
20260510135703 68 84 0.9 3.5 0.00 0.00 0.00 65 1017.1
20260510135159 68 117 0.9 5.2 0.00 0.00 0.00 65 1017.1
20260510134656 67 154 1.7 3.5 0.00 0.00 0.00 65 1017.1
20260510134153 68 73 0.9 1.7 0.00 0.00 0.00 71 1017.0
20260510133649 66 118 0.9 1.7 0.00 0.00 0.00 75 1017.2
20260510133145 66 240 0.0 3.5 0.00 0.00 0.00 71 1017.0
20260510132641 65 24 0.0 0.0 0.00 0.00 0.00 78 1017.3
20260510132139 63 342 0.0 0.9 0.00 0.00 0.00 80 1017.2
20260510131636 61 96 0.0 0.0 0.00 0.00 0.00 86 1017.0
20260510131134 60 79 0.0 0.0 0.00 0.00 0.00 88 1017.2
20260510130630 59 69 0.0 0.0 0.00 0.00 0.00 88 1017.1
20260510130127 58 60 0.0 0.0 0.00 0.00 0.00 89 1017.4
20260510125623 57 41 0.0 0.0 0.00 0.00 0.00 88 1017.5
20260510125120 55 82 0.0 0.0 0.00 0.00 0.00 93 1017.3
20260510124617 55 62 0.0 0.0 0.00 0.00 0.00 93 1017.4
20260510124114 55 357 0.0 0.0 0.00 0.00 0.00 94 1017.1
20260510123609 53 34 0.0 0.0 0.00 0.00 0.00 98 1017.5
20260510123106 52 65 0.0 0.0 0.00 0.00 0.00 99 1017.4
20260510122601 51 46 0.0 0.0 0.00 0.00 0.00 99 1017.3
20260510122057 51 68 0.0 0.0 0.00 0.00 0.00 99 1017.1
20260510121554 50 54 0.0 0.0 0.00 0.00 0.00 99 1017.1
20260510121052 51 351 0.0 0.0 0.00 0.00 0.00 99 1016.9
20260510120550 49 10 0.0 0.0 0.00 0.00 0.00 99 1017.0
20260510120049 48 14 0.0 0.0 0.00 0.00 0.00 99 1017.1
20260510115547 48 316 0.0 0.0 0.00 0.00 0.00 99 1017.2
20260510115044 47 0 0.0 0.0 0.00 0.00 0.00 99 1017.0
20260510114539 47 277 0.0 0.0 0.00 0.00 0.00 99 1017.1
20260510114036 47 269 0.0 0.0 0.00 0.00 0.00 99 1016.8
20260510113531 47 269 0.0 0.0 0.00 0.00 0.00 99 1016.8
20260510113029 47 269 0.0 0.0 0.00 0.00 0.00 99 1016.6
20260510112525 46 269 0.0 0.0 0.00 0.00 0.00 99 1016.5
20260510112022 44 268 0.0 0.0 0.00 0.00 0.00 99 1016.5
20260510111519 44 268 0.0 0.0 0.00 0.00 0.00 99 1016.3
20260510111014 43 268 0.0 0.0 0.00 0.00 0.00 99 1016.2
20260510110511 43 268 0.0 0.0 0.00 0.00 0.00 99 1016.1
20260510110007 43 268 0.0 0.0 0.00 0.00 0.00 99 1016.0
20260510105502 43 268 0.0 0.0 0.00 0.00 0.00 99 1016.1
20260510104958 43 268 0.0 0.0 0.00 0.00 0.00 99 1015.8
20260510104454 43 268 0.0 0.0 0.00 0.00 0.00 99 1015.8
20260510103951 43 268 0.0 0.0 0.00 0.00 0.00 99 1015.8
20260510103448 43 268 0.0 0.0 0.00 0.00 0.00 99 1015.8
20260510102943 43 229 0.0 0.0 0.00 0.00 0.00 99 1015.9
20260510102439 43 270 0.0 0.0 0.00 0.00 0.00 99 1015.8
20260510101936 43 270 0.0 0.0 0.00 0.00 0.00 99 1015.8
20260510101434 43 270 0.0 0.0 0.00 0.00 0.00 99 1015.7
20260510100932 43 270 0.0 0.0 0.00 0.00 0.00 99 1015.3
20260510100428 43 270 0.0 0.0 0.00 0.00 0.00 99 1015.5
20260510095924 43 270 0.0 0.0 0.00 0.00 0.00 99 1015.4
20260510095420 43 270 0.0 0.0 0.00 0.00 0.00 99 1015.3
20260510094919 43 271 0.0 0.0 0.00 0.00 0.00 99 1015.4
20260510094414 43 255 0.0 0.0 0.00 0.00 0.00 99 1015.4
20260510093911 44 254 0.0 0.0 0.00 0.00 0.00 99 1015.1
20260510093406 44 283 0.0 0.0 0.00 0.00 0.00 99 1015.1
20260510092903 44 250 0.0 0.0 0.00 0.00 0.00 99 1015.3
20260510092401 43 250 0.0 0.0 0.00 0.00 0.00 99 1015.3
20260510091900 44 250 0.0 0.0 0.00 0.00 0.00 99 1015.3
20260510091358 44 275 0.0 0.0 0.00 0.00 0.00 99 1014.9
20260510090855 44 190 0.0 0.0 0.00 0.00 0.00 99 1014.9
20260510090351 44 189 0.0 0.0 0.00 0.00 0.00 99 1014.9
20260510085847 44 198 0.0 0.0 0.00 0.00 0.00 99 1015.1
20260510085342 44 198 0.0 0.0 0.00 0.00 0.00 99 1015.1
20260510084838 43 198 0.0 0.0 0.00 0.00 0.00 99 1014.8
20260510084335 44 198 0.0 0.0 0.00 0.00 0.00 99 1014.9
20260510083831 44 198 0.0 0.0 0.00 0.00 0.00 99 1014.7
20260510083328 44 198 0.0 0.0 0.00 0.00 0.00 99 1014.7
20260510082824 44 175 0.0 0.0 0.00 0.00 0.00 99 1014.6
20260510082321 44 174 0.0 0.0 0.00 0.00 0.00 99 1014.7
20260510081820 45 173 0.0 0.0 0.00 0.00 0.00 99 1014.6
20260510081316 45 212 0.0 0.0 0.00 0.00 0.00 99 1014.5
20260510080812 45 231 0.0 0.0 0.00 0.00 0.00 99 1014.7
20260510080307 44 256 0.0 0.0 0.00 0.00 0.00 99 1014.5
20260510075805 44 238 0.0 0.0 0.00 0.00 0.00 99 1014.5
20260510075305 45 229 0.0 0.0 0.00 0.00 0.00 99 1014.5
20260510074759 45 220 0.0 0.0 0.00 0.00 0.00 99 1014.5
20260510074255 45 240 0.0 0.0 0.00 0.00 0.00 99 1014.2
20260510073752 45 239 0.0 0.0 0.00 0.00 0.00 99 1014.4
20260510073247 45 198 0.0 0.0 0.00 0.00 0.00 99 1014.2
20260510072743 45 156 0.0 0.0 0.00 0.00 0.00 99 1014.4
20260510072240 45 156 0.0 0.0 0.00 0.00 0.00 99 1014.5
20260510071737 45 156 0.0 0.0 0.00 0.00 0.00 99 1014.4
20260510071233 45 156 0.0 0.0 0.00 0.00 0.00 99 1014.2
20260510070732 46 156 0.0 0.0 0.00 0.00 0.00 99 1014.5
20260510070229 46 156 0.0 0.0 0.00 0.00 0.00 99 1014.4
20260510065723 46 220 0.0 0.0 0.00 0.00 0.00 99 1014.5
20260510065220 46 223 0.0 0.0 0.00 0.00 0.00 99 1014.3
20260510064717 45 223 0.0 0.0 0.00 0.00 0.00 99 1014.4
20260510064214 45 223 0.0 0.0 0.00 0.00 0.00 99 1014.4
20260510063711 45 223 0.0 0.0 0.00 0.00 0.00 99 1014.5
20260510063207 46 223 0.0 0.0 0.00 0.00 0.00 99 1014.6
20260510062704 46 223 0.0 0.0 0.00 0.00 0.00 99 1014.4
20260510062200 46 223 0.0 0.0 0.00 0.00 0.00 99 1014.7
20260510061654 46 223 0.0 0.0 0.00 0.00 0.00 99 1014.5
20260510061152 46 223 0.0 0.0 0.00 0.00 0.00 99 1014.5
20260510060648 46 223 0.0 0.0 0.00 0.00 0.00 99 1014.5
20260510060145 46 223 0.0 0.0 0.00 0.00 0.00 99 1014.7
20260510055642 46 223 0.0 0.0 0.00 0.00 0.00 99 1014.4
20260510055140 46 223 0.0 0.0 0.00 0.00 0.00 99 1014.5
20260510054635 46 223 0.0 0.0 0.00 0.00 0.00 99 1014.6
20260510054131 46 223 0.0 0.0 0.00 0.00 0.00 99 1014.5
20260510053630 46 223 0.0 0.0 0.00 0.00 0.00 99 1014.7
20260510053127 47 223 0.0 0.0 0.00 0.00 0.00 99 1014.8
20260510052623 47 224 0.0 0.0 0.00 0.00 0.00 99 1014.6
20260510052119 47 224 0.0 0.0 0.00 0.00 0.00 99 1014.7
20260510051614 47 224 0.0 0.0 0.00 0.00 0.00 99 1014.8
20260510051112 47 224 0.0 0.0 0.00 0.00 0.00 99 1014.8
20260510050609 47 224 0.0 0.0 0.00 0.00 0.00 99 1014.9
20260510050106 47 224 0.0 0.0 0.00 0.00 0.00 99 1015.1
20260510045603 47 224 0.0 0.0 0.00 0.00 0.00 99 1014.8
20260510045059 47 224 0.0 0.0 0.00 0.00 0.00 99 1014.9
20260510044555 47 224 0.0 0.0 0.00 0.00 0.00 99 1014.9
20260510044053 48 224 0.0 0.0 0.00 0.00 0.00 99 1014.9
20260510043549 48 224 0.0 0.0 0.00 0.00 0.00 99 1015.1
20260510043045 47 229 0.0 0.0 0.00 0.00 0.00 99 1014.9
20260510042544 47 229 0.0 0.0 0.00 0.00 0.00 99 1014.8
20260510042039 47 229 0.0 0.0 0.00 0.00 0.00 99 1014.8
20260510041537 47 229 0.0 0.0 0.00 0.00 0.00 99 1014.9
20260510041034 48 229 0.0 0.0 0.00 0.00 0.00 99 1014.9
20260510040531 48 229 0.0 0.0 0.00 0.00 0.00 99 1014.8
20260510040027 48 229 0.0 0.0 0.00 0.00 0.00 99 1014.8
20260510035523 48 229 0.0 0.0 0.00 0.00 0.00 99 1014.8
20260510035023 49 229 0.0 0.0 0.00 0.00 0.00 99 1014.6
20260510034521 49 229 0.0 0.0 0.00 0.00 0.00 99 1014.8
20260510034017 49 229 0.0 0.0 0.00 0.00 0.00 99 1014.7
20260510033513 49 229 0.0 0.0 0.00 0.00 0.00 99 1014.6
20260510033012 49 229 0.0 0.0 0.00 0.00 0.00 99 1014.5
20260510032508 50 229 0.0 0.0 0.00 0.00 0.00 99 1014.5
20260510032008 49 229 0.0 0.0 0.00 0.00 0.00 99 1014.3
20260510031504 49 229 0.0 0.0 0.00 0.00 0.00 99 1014.3
20260510031000 49 229 0.0 0.0 0.00 0.00 0.00 99 1014.3
20260510030455 50 229 0.0 0.0 0.00 0.00 0.00 99 1014.3
20260510025953 50 229 0.0 0.0 0.00 0.00 0.00 98 1014.3
20260510025450 50 229 0.0 0.0 0.00 0.00 0.00 99 1014.2
20260510024947 50 229 0.0 0.0 0.00 0.00 0.00 98 1014.1
20260510024444 51 229 0.0 0.0 0.00 0.00 0.00 98 1014.2
20260510023939 51 229 0.0 0.0 0.00 0.00 0.00 98 1013.8
20260510023436 51 229 0.0 0.0 0.00 0.00 0.00 98 1014.0
20260510022933 51 229 0.0 0.0 0.00 0.00 0.00 98 1013.9
20260510022432 51 232 0.0 0.0 0.00 0.00 0.00 98 1013.6
20260510021931 52 232 0.0 0.0 0.00 0.00 0.00 97 1013.7
20260510021430 52 231 0.0 0.0 0.00 0.00 0.00 97 1013.6
20260510020927 52 231 0.0 0.0 0.00 0.00 0.00 97 1013.7
20260510020427 52 278 0.0 0.0 0.00 0.00 0.00 97 1013.6
20260510015923 53 277 0.0 0.0 0.00 0.00 0.00 97 1013.5
20260510015419 53 262 0.0 0.0 0.00 0.00 0.00 96 1013.5
20260510014914 53 262 0.0 0.0 0.00 0.00 0.00 96 1013.4
20260510014412 53 257 0.0 0.0 0.00 0.00 0.00 95 1013.3
20260510013909 53 257 0.0 0.0 0.00 0.00 0.00 95 1013.3
20260510013409 54 257 0.0 0.0 0.00 0.00 0.00 95 1013.2
20260510012904 54 262 0.0 0.0 0.00 0.00 0.00 94 1013.2
20260510012359 55 262 0.0 0.0 0.00 0.00 0.00 94 1013.2
20260510011854 55 262 0.0 0.0 0.00 0.00 0.00 93 1013.0
20260510011349 55 262 0.0 0.0 0.00 0.00 0.00 92 1012.9
20260510010846 56 267 0.0 0.0 0.00 0.00 0.00 91 1012.8
20260510010344 56 258 0.0 0.0 0.00 0.00 0.00 91 1012.9
20260510005840 56 269 0.0 0.0 0.00 0.00 0.00 90 1012.6
20260510005336 57 277 0.0 0.0 0.00 0.00 0.00 90 1012.8
20260510004834 57 252 0.0 0.0 0.00 0.00 0.00 88 1012.6
20260510004331 58 276 0.0 0.0 0.00 0.00 0.00 87 1012.5
20260510003829 58 247 0.0 0.0 0.00 0.00 0.00 86 1012.4
20260510003326 59 277 0.0 0.0 0.00 0.00 0.00 85 1012.3
20260510002824 60 285 0.0 0.0 0.00 0.00 0.00 83 1012.1
20260510002322 60 275 0.0 0.9 0.00 0.00 0.00 83 1012.1
20260510001818 61 281 0.0 0.0 0.00 0.00 0.00 82 1012.1
20260510001317 61 344 0.0 0.0 0.00 0.00 0.00 80 1012.0
20260510000812 62 277 0.0 0.0 0.00 0.00 0.00 79 1012.1
20260510000311 63 29 0.0 0.0 0.00 0.00 0.00 76 1011.9
20260509235807 63 61 0.0 0.9 0.00 0.00 0.00 74 1011.8
20260509235306 65 268 0.0 0.0 0.00 0.00 0.00 71 1012.0
20260509234759 65 7 0.0 0.0 0.00 0.00 0.00 68 1011.8
20260509234256 66 66 0.9 6.1 0.00 0.00 0.00 64 1011.8
20260509233754 66 116 0.9 1.7 0.00 0.00 0.00 65 1011.9
20260509233251 67 63 0.9 3.5 0.00 0.00 0.00 62 1012.0
20260509232747 68 123 0.9 2.6 0.00 0.00 0.00 62 1011.9
20260509232245 68 106 5.2 6.1 0.00 0.00 0.00 59 1011.9
20260509231741 69 97 2.6 6.1 0.00 0.00 0.00 59 1012.1
20260509231238 69 129 1.7 8.7 0.00 0.00 0.00 58 1011.8
20260509230736 69 132 5.2 7.8 0.00 0.00 0.00 57 1011.7
20260509230232 69 246 1.7 7.0 0.00 0.00 0.00 57 1011.8
20260509225727 69 140 2.6 6.1 0.00 0.00 0.00 57 1011.6
20260509225224 70 131 1.7 6.1 0.00 0.00 0.00 56 1011.6
20260509224719 70 144 2.6 3.5 0.00 0.00 0.00 56 1011.6
20260509224217 69 136 1.7 3.5 0.00 0.00 0.00 57 1011.6
20260509223714 70 107 8.7 9.6 0.00 0.00 0.00 55 1011.8
20260509223211 71 114 1.7 7.0 0.00 0.00 0.00 56 1011.6
20260509222708 71 130 0.9 3.5 0.00 0.00 0.00 55 1011.8
20260509222203 70 96 3.5 5.2 0.00 0.00 0.00 56 1011.7
20260509221659 70 128 4.3 6.1 0.00 0.00 0.00 55 1012.0
20260509221155 70 59 1.7 5.2 0.00 0.00 0.00 55 1012.0
20260509220651 70 95 1.7 7.8 0.00 0.00 0.00 54 1011.9
20260509220148 70 211 4.3 7.8 0.00 0.00 0.00 54 1011.9
20260509215644 72 139 3.5 6.1 0.00 0.00 0.00 53 1011.9
20260509215140 72 81 5.2 8.7 0.00 0.00 0.00 52 1011.8
20260509214637 72 105 2.6 2.6 0.00 0.00 0.00 53 1011.9
20260509214134 71 72 2.6 3.5 0.00 0.00 0.00 55 1012.0
20260509213631 71 131 1.7 7.8 0.00 0.00 0.00 54 1011.8
20260509213127 70 153 3.5 7.8 0.00 0.00 0.00 56 1012.1
20260509212625 70 103 7.0 7.8 0.00 0.00 0.00 55 1012.1
20260509212122 69 99 2.6 3.5 0.00 0.00 0.00 56 1012.0
20260509211617 69 103 1.7 7.0 0.00 0.00 0.00 55 1011.9
20260509211114 70 59 2.6 5.2 0.00 0.00 0.00 55 1011.8
20260509210611 70 353 0.9 5.2 0.00 0.00 0.00 54 1012.0
20260509210108 71 99 6.1 7.8 0.00 0.00 0.00 52 1011.8
20260509205608 71 105 1.7 6.1 0.00 0.00 0.00 54 1011.8
20260509205103 72 89 2.6 3.5 0.00 0.00 0.00 52 1011.9
20260509204559 71 89 3.5 7.0 0.00 0.00 0.00 52 1011.8
20260509204056 70 107 1.7 7.0 0.00 0.00 0.00 54 1012.0
20260509203552 70 122 5.2 8.7 0.00 0.00 0.00 53 1011.7
20260509203051 70 100 1.7 3.5 0.00 0.00 0.00 56 1011.5
20260509202545 71 7 2.6 7.0 0.00 0.00 0.00 54 1011.8
20260509202041 71 113 2.6 5.2 0.00 0.00 0.00 54 1011.6
20260509201536 70 316 0.9 1.7 0.00 0.00 0.00 54 1011.6
20260509201034 71 106 4.3 6.1 0.00 0.00 0.00 54 1011.6
20260509200533 71 110 1.7 3.5 0.00 0.00 0.00 53 1011.5
20260509200030 70 154 3.5 7.0 0.00 0.00 0.00 53 1011.8
20260509195525 72 126 2.6 6.1 0.00 0.00 0.00 54 1011.8
20260509195025 71 126 2.6 2.6 0.00 0.00 0.00 52 1011.7
20260509194520 70 82 3.5 6.1 0.00 0.00 0.00 56 1012.0
20260509194018 71 112 4.3 7.8 0.00 0.00 0.00 52 1012.0
20260509193518 72 109 3.5 8.7 0.00 0.00 0.00 52 1011.9
20260509193015 71 101 3.5 6.1 0.00 0.00 0.00 52 1012.0
20260509192511 71 152 5.2 7.8 0.00 0.00 0.00 53 1012.0
20260509192006 71 104 0.9 5.2 0.00 0.00 0.00 54 1011.9
20260509191501 70 127 1.7 5.2 0.00 0.00 0.00 55 1012.1
20260509190957 70 65 1.7 2.6 0.00 0.00 0.00 56 1012.2
20260509190455 70 120 2.6 3.5 0.00 0.00 0.00 55 1012.0
20260509185953 68 129 2.6 7.0 0.00 0.00 0.00 58 1012.2
20260509185449 68 119 4.3 8.7 0.00 0.00 0.00 57 1011.9
20260509184946 67 121 4.3 8.7 0.00 0.00 0.00 58 1012.1
20260509184445 67 127 5.2 7.8 0.00 0.00 0.00 57 1012.2
20260509183941 67 136 2.6 7.0 0.00 0.00 0.00 58 1012.0
20260509183441 67 115 1.7 3.5 0.00 0.00 0.00 57 1012.0
20260509182937 67 142 2.6 6.1 0.00 0.00 0.00 58 1012.3
20260509182433 67 121 5.2 7.0 0.00 0.00 0.00 58 1012.2
20260509181931 67 116 3.5 7.0 0.00 0.00 0.00 59 1012.2
20260509181429 68 342 0.9 6.1 0.00 0.00 0.00 57 1012.2
20260509180926 68 58 4.3 7.8 0.00 0.00 0.00 57 1012.1
20260509180421 68 120 7.0 8.7 0.00 0.00 0.00 56 1012.4
20260509175919 69 95 0.9 6.1 0.00 0.00 0.00 56 1012.3
20260509175414 68 75 3.5 5.2 0.00 0.00 0.00 58 1012.4
20260509174911 68 113 1.7 3.5 0.00 0.00 0.00 57 1012.3
20260509174408 67 100 3.5 6.1 0.00 0.00 0.00 58 1012.3
20260509173904 67 357 2.6 5.2 0.00 0.00 0.00 58 1012.5
20260509173403 67 85 2.6 3.5 0.00 0.00 0.00 58 1012.6
20260509172900 66 94 4.3 6.1 0.00 0.00 0.00 58 1012.5
20260509172357 66 62 5.2 7.8 0.00 0.00 0.00 58 1012.5
20260509171853 66 25 2.6 7.0 0.00 0.00 0.00 59 1012.6
20260509171349 67 70 4.3 7.0 0.00 0.00 0.00 58 1012.6
20260509170845 67 114 0.9 2.6 0.00 0.00 0.00 59 1012.5
20260509170341 66 113 1.7 6.1 0.00 0.00 0.00 60 1012.6
20260509165836 66 101 4.3 7.8 0.00 0.00 0.00 59 1012.6
20260509165331 67 111 7.8 9.6 0.00 0.00 0.00 58 1012.8
20260509164827 66 21 1.7 14.8 0.00 0.00 0.00 57 1012.7